Regional Weather Roundup
Issued by NWS

Home | Current Version | Previous Version | Graphics & Text | Print | Product List | Glossary Off
Versions: 1 2 3 4 5 6 7 8 9 10 11 12 13 14 15 16 17 18 19 20 21 22 23 24 25 26 27 28 29 30 31 32 33 34 35 36 37 38 39 40 41 42 43 44 45 46 47 48 49 50

000
ASUS43 KTOP 241008
RWRKS

WEATHER ROUNDUP FOR KANSAS
NATIONAL WEATHER SERVICE GOODLAND KS
400 AM CST MON NOV 24 2014

NOTE:  "FAIR" INDICATES FEW OR NO CLOUDS BELOW 12,000 FEET WITH NO
SIGNIFICANT WEATHER AND/OR OBSTRUCTIONS TO VISIBILITY.

KSZ001>006-013>018-027>032-041>047-241100-
NORTHWEST KANSAS

CITY           SKY/WX    TMP DP  RH WIND       PRES   REMARKS
GOODLAND       CLEAR     27  15  61 W21       29.82R WCI  13
HAYS           CLEAR     30  12  47 W13G18    29.76R WCI  20
HILL CITY      CLEAR     32  17  54 W14       29.75R WCI  22
RUSSELL        CLEAR     32  20  61 W17       29.73R WCI  21
$$

KSZ061>065-074>080-084>089-241100-
SOUTHWEST KANSAS

CITY           SKY/WX    TMP DP  RH WIND       PRES   REMARKS
DODGE CITY     CLEAR     32  16  51 W16       29.85R WCI  21
ELKHART          N/A    N/A N/A N/A MISG        N/A
GARDEN CITY    CLEAR     31  16  54 W13G25    29.86R WCI  21
GREAT BEND     CLEAR     34  16  47 W20       29.77F WCI  22
LIBERAL        PTCLDY    30  18  59 W14       29.93R WCI  20
PRATT          CLEAR     30  19  64 W12       29.82R WCI  21
$$

KSZ066>073-081>083-090>101-241100-
SOUTHEAST KANSAS

CITY           SKY/WX    TMP DP  RH WIND       PRES   REMARKS
CHANUTE        PTCLDY    38  28  67 NW13      29.70R WCI  30
COFFEYVILLE    CLEAR     39  29  67 W8        29.73R
HUTCHINSON     CLEAR     34  20  56 W10       29.75R WCI  26
MEDICINE LODGE   N/A     34  19  54 W10       29.83R WCI  26
NEWTON         CLEAR     34  21  60 NW14      29.75R WCI  24
PARSONS        CLEAR     38  30  73 NW9       29.72R
WICHITA INTL   CLEAR     37  22  54 W15       29.77R WCI  28
WICHITA JABRA  CLEAR     35  24  64 W13       29.75R WCI  26
WICHITA MCCONL CLEAR     37  22  54 W7        29.76R
WINFIELD       CLEAR     33  28  81 W9        29.79R
$$

KSZ007>012-019>026-033>040-048>060-102>105-241100-
NORTHEAST KANSAS

CITY           SKY/WX    TMP DP  RH WIND       PRES   REMARKS
CONCORDIA      CLOUDY    36  25  64 W13       29.66S WCI  27
EMPORIA        PTCLDY    32  27  81 W9        29.68R
LAWRENCE       PTCLDY    34  25  69 W14       29.63R WCI  25
MANHATTAN      PTCLDY    34  26  72 W7        29.67S
MARYSVILLE     CLEAR     32  23  69 NW14      29.64R WCI  22
OLATHE IND     CLOUDY    35  27  72 W16       29.61R WCI  25
OLATHE EXE     CLOUDY    36  28  73 W10G17    29.59R WCI  28
SALINA         CLOUDY    39  22  50 W18       29.71R WCI  30
TOPEKA BILLARD CLEAR     36  23  59 NW18G30   29.65R WCI  26
TOPEKA FORBES  CLEAR     36  24  62 NW14      29.63R WCI  27
$$



USA.gov is the U.S. government's official web portal to all federal, state and local government web resources and services.